[Date Prev][Date Next][Thread Prev][Thread Next] - [Date Index][Thread Index][Author Index]
2 Line ISS Keps 4-13
- Subject: [sarex] 2 Line ISS Keps 4-13
- From: "Dave Larsen Ph.D." <doc@xxxxxxxxxxx>
- Date: Sun, 13 Apr 2003 04:47:51 -0700
ISS
1 25544U 98067A 03103.41618056 .00012218 00000-0 16561-3 0 8870
2 25544 51.6355 345.5603 0006405 18.0380 350.7704 15.58090082250908
----
Via the sarex mailing list at AMSAT.ORG courtesy of AMSAT-NA.
To unsubscribe, send "unsubscribe sarex" to Majordomo@amsat.org
AMSAT Home